Regional Weather Roundup
Issued by NWS Memphis, TN

Home | Current Version | Previous Version | Text Only | Print | Product List | Glossary On
Versions: 1 2 3 4 5 6 7 8 9 10 11 12 13 14 15 16 17 18 19 20 21 22 23 24 25 26 27 28 29 30 31 32 33 34 35 36 37 38 39 40 41 42 43 44 45 46 47 48 49 50
000
ASUS44 KMEG 201110
RWRMEG
MEMPHIS CWA HOURLY WEATHER ROUNDUP
NATIONAL WEATHER SERVICE MEMPHIS TN
600 AM CDT WED SEP 20 2017

...WEST TENNESSEE...

CITY           SKY/WX    TMP DP  RH WIND       PRES   REMARKS
MEMPHIS INTL   CLEAR     74  71  91 S6        29.94R
NWS MEMPHIS      N/A     73 N/A N/A MISG        N/A
JACKSON        CLEAR     73  71  93 S6        29.96R
COVINGTON      CLOUDY    72  70  94 CALM      29.94R
SOMERVILLE     MOCLDY    72  70  94 CALM      29.95R
BOLIVAR        CLEAR     70  68  94 CALM      29.96R
LEXINGTON      PTCLDY    68  68 100 CALM      29.97R
SELMER         MOCLDY    70  68  94 S5        29.98R
SAVANNAH       CLOUDY    68  68 100 CALM      29.98R
DYERSBURG      CLEAR     72  70  93 S5        29.95R
PARIS          CLEAR     70  70 100 S3        29.95R
HUNTINGDON     CLEAR     70  68  94 CALM      29.95R


...EASTERN ARKANSAS...

CITY           SKY/WX    TMP DP  RH WIND       PRES   REMARKS
JONESBORO      CLEAR     71  71 100 S5        29.92R
WEST MEMPHIS   CLEAR     72  72 100 S3        29.92R
BATESVILLE     CLEAR    N/A N/A N/A S8        29.91S
NEWPORT        CLEAR     70  69  97 S7        29.92R
BLYTHEVILLE    CLEAR     72  71  97 S6        29.93R
SEARCY         PTCLDY    72  72 100 CALM      29.93R FOG
STUTTGART      PTCLDY    75  72  90 S6        29.93R
PINE BLUFF     MOCLDY    73  71  93 S3        29.92R
MONTICELLO     CLOUDY    77  72  84 SW6       29.93R


...NORTH MISSISSIPPI...

CITY           SKY/WX    TMP DP  RH WIND       PRES   REMARKS
TUPELO         CLEAR     71  68  90 CALM      29.97R
OXFORD         CLEAR     72  70  94 S5        29.98R
BATESVILLE     CLEAR     69  68  95 CALM      29.96R FOG
TUNICA           N/A     70  70 100 S3        29.95R FOG
CLARKSDALE       N/A     72  72 100 SE3       29.94R
GREENWOOD      CLEAR     71  69  93 S3        29.95R
COLUMBUS       CLEAR     69  69 100 CALM      29.97R
STARKVILLE       N/A     68  68 100 CALM      29.99R FOG
GOLDEN TRIANGL CLEAR     70  64  83 CALM      29.98


...SOUTHEAST MISSOURI...

CITY           SKY/WX    TMP DP  RH WIND       PRES   REMARKS
KENNETT        CLEAR     72  72 100 S3        29.91R FOG
MALDEN         CLEAR     72  70  94 S7        29.92S
WEST PLAINS    CLEAR     72  69  90 S6        29.92R
POPLAR BLUFF   CLEAR     66  65  96 CALM      29.91R FOG
CAPE GIRARDEAU CLEAR     73  69  87 CALM      29.91R


...NORTHWEST ALABAMA...

CITY           SKY/WX    TMP DP  RH WIND       PRES   REMARKS
MUSCLE SHOALS  CLEAR     65  63  93 CALM      30.01R FOG


...MIDDLE TENNESSEE...

CITY           SKY/WX    TMP DP  RH WIND       PRES   REMARKS
NASHVILLE      PTCLDY    68  65  90 CALM      30.00R
CLARKSVILLE    CLEAR     66  64  93 CALM      29.97R
COLUMBIA       CLEAR     66  66 100 CALM      29.98R


...WESTERN KENTUCKY...

CITY           SKY/WX    TMP DP  RH WIND       PRES   REMARKS
PADUCAH        CLEAR     73  68  84 VRB3      29.92R
FORT CAMPBELL  CLEAR     69  69  99 S5        29.97R


...CENTRAL ARKANSAS...

CITY           SKY/WX    TMP DP  RH WIND       PRES   REMARKS
LITTLE ROCK    PTCLDY    72  72 100 CALM      29.92R


SKY/WX REPORTED AS FAIR MEANS FEW OR NO CLOUDS BELOW
12 THOUSAND FEET.





USA.gov is the U.S. government's official web portal to all federal, state and local government web resources and services.